Location: Boiro
(42.6475°N, 8.8834°W)
Time: 15:32:42
(UTC+02:00)

Explorer 7 - Pass Details

Date: 28 June 2022
Orbit: 482 x 668 km, 50.3° (Epoch: 15 August)

Event Time Altitude Azimuth Distance (km) Brightness Sun altitude
Exits shadow 04:31:38 - 280° (W) 2,951 10.4 -19.1°
Reaches altitude 10° 04:34:09 10° 290° (WNW) 2,052 9.6 -18.9°
Maximum altitude 04:38:24 32° 354° (N) 1,086 8.8 -18.5°
Drops below altitude 10° 04:42:29 10° 58° (ENE) 1,962 10.6 -18.2°
Sets 04:44:55 0° 68° (ENE) 2,832 11.3 -17.9°
